Tracking 27382 objects as of 5-Jun-2023
HD Live streaming from Space Station
objects crossing your sky now

STARLINK-5884

Track STARLINK-5884 now!
10-day predictions
STARLINK-5884 is classified as:


NORAD ID: 55957
Int'l Code: 2023-037AV
Perigee: 363.6 km
Apogee: 368.8 km
Inclination: 70.0 °
Period: 91.7 minutes
Semi major axis: 6737 km
RCS: Unknown
Launch date: March 17, 2023
Source: United States (US)
Launch site: AIR FORCE WESTERN TEST RANGE (AFWTR)
Your satellite tracking list
Your tracking list is empty




NASA's NSSDC Master Catalog

Two Line Element Set (TLE):
1 55957U 23037AV  23155.79387938  .00006407  00000-0  54974-4 0  9996
2 55957  69.9990 318.8741 0003898 267.1761  92.8988 15.69939053 12934
Source of the keplerian elements: AFSPC